Simultaneous Nadir Overpasses (SNOs) Predictions

Prediction of SNOs between LANDSAT-8 and NOAA-19 Satellite Orbit:

Table of predicted SNOs for the next 14.0 days since TLE Epoch: 8/8/2014
Index Date (LANDSAT-8) Time (LANDSAT-8) Lat,Lon (LANDSAT-8) SZA (LANDSAT-8 ) Date (NOAA-19) Time (NOAA-19) Lat,Lon (NOAA-19) SZA (NOAA-19 ) Distance(km) Time Diff (sec)
1 08/09/2014 11:11:13 -72.13,-168.26 123.76 08/09/2014 11:10:41 -72.13,-168.25 123.76 0.74 32
2 08/09/2014 12:00:40 72.04, -0.78 56.16 08/09/2014 12:01:37 72.04, -0.82 56.17 1.43 57
3 08/11/2014 15:55:30 -72.19, 120.77 123.06 08/11/2014 15:54:30 -72.19, 120.70 123.05 2.44 60
4 08/11/2014 16:44:58 72.05, -71.85 56.81 08/11/2014 16:45:25 72.05, -71.76 56.82 3.05 27
5 08/13/2014 20:39:38 -72.72, 50.67 121.87 08/13/2014 20:38:29 -72.76, 48.60 121.80 68.61 69
6 08/13/2014 21:29:15 72.09,-142.84 57.52 08/13/2014 21:29:14 72.11,-142.80 57.54 2.34 1
7 08/13/2014 22:18:58 -71.28, 23.42 123.27 08/13/2014 22:20:04 -71.32, 25.92 123.25 89.18 66
8 08/16/2014 02:13:31 72.18, 146.25 58.29 08/16/2014 02:13:03 72.17, 146.16 58.28 3.13 28
9 08/16/2014 03:03:01 -72.07, -46.32 121.81 08/16/2014 03:04:06 -72.05, -46.39 121.83 2.64 65
10 08/18/2014 06:57:48 72.20, 75.21 59.01 08/18/2014 06:56:51 72.18, 75.22 58.99 2.35 57
11 08/18/2014 07:47:18 -72.09,-117.35 121.09 08/18/2014 07:47:54 -72.08,-117.36 121.10 0.96 36
12 08/20/2014 11:41:58 72.58, 4.85 60.11 08/20/2014 11:40:48 72.64, 3.34 60.19 50.57 70
13 08/20/2014 12:31:35 -72.10, 171.60 120.37 08/20/2014 12:31:42 -72.11, 171.66 120.35 2.59 7




NCC Satellite Simultaneous Nadir Overpasses (SNOs) Prediction Service
